Location: DARK SKY Beskydy - Park tmavé oblohy, www.darkskybeskydy.cz
(49.4926°N, 18.5016°E)
Time: 12:34:05
(UTC+02:00)

Vanguard 1 - Pass Details

Date: 26 February 2024
Orbit: 653 x 3825 km, 34.2° (Epoch: 12 April)

Event Time Altitude Azimuth Distance (km) Brightness Sun altitude
Rises 23:08:13 0° 268° (W) 6,529 14.4 -47.8°
Reaches altitude 10° 23:12:17 10° 262° (W) 5,864 14.0 -48.0°
Enters shadow 23:21:42 34° 239° (WSW) 4,774 13.2 -48.4°
Maximum altitude 23:30:21 45° 198° (SSW) 4,551 - -48.7°
Drops below altitude 10° 23:51:10 10° 136° (SE) 6,654 - -49.1°
Sets 23:56:14 0° 130° (SE) 7,432 - -49.1°
